Satellite-Ground Cal/Val Site Overpasses Predictions

Prediction of Satellite NPP Overpassing Cal/Val Site: Antarctic Dome C

Ground Cal/Val Site Location: Latitude: -75.10, Longitude: 123.35; Satellite-Ground Site NADIR distance within 100 km.

Table of predicted overpasses for the next 14.0 days since TLE Epoch: 8/23/2019
Interval Starting Time Ending Time Minimum Distance Time Minimum Distance (km)
1 08/25/2019 15:08:03 08/25/2019 15:08:08 08/25/2019 15:08:06 97.82
2 08/26/2019 14:49:01 08/26/2019 14:49:30 08/26/2019 14:49:15 13.54
3 08/28/2019 07:31:50 08/28/2019 07:32:19 08/28/2019 07:32:05 1.21
4 08/31/2019 14:55:18 08/31/2019 14:55:47 08/31/2019 14:55:32 23.00
5 09/01/2019 14:36:35 09/01/2019 14:36:50 09/01/2019 14:36:43 84.15
6 09/02/2019 07:38:08 09/02/2019 07:38:36 09/02/2019 07:38:22 35.46
7 09/03/2019 07:19:22 09/03/2019 07:19:41 09/03/2019 07:19:32 74.57
8 09/05/2019 15:01:37 09/05/2019 15:02:00 09/05/2019 15:01:49 59.93


NCC Satellite Cal/Val Overpasses Prediction Service
